sat.trackr.live / text

‹ back to catalog

AZERSPACE 1

NORAD 39079 · 2013-006B

PAYLOAD ACTIVE UNKNOWN

§ Identity

Operator
Country
AZER
Launch date
2013-02-07
Launch site
FRGUI
Launch vehicle
Mass (kg)
RCS (m²)
50.12

Purposes: comms

External: N2YO · Heavens-Above · Gunter

§ Orbital elements

Epoch: 2026-09-19T10:20:45.024288Z

Period
1,436.05 min
Inclination
0.0188°
Eccentricity
0.0001751
Mean motion
1.00274763 rev/d
Perigee alt
35,778.4 km
Apogee alt
35,793.1 km
Semi-major
42,163.9 km
B*
0.0000e+0
RAAN
161.6029°
Arg perigee
37.4658°
Mean anomaly
0.4903°
Rev number
4,975

§ Raw data

AZERSPACE 11 39079U 13006B   26262.43107667  .00000000  00000+0  00000+0 0  99982 39079   0.0188 161.6029 0001751  37.4658   0.4903  1.00274763 49750

JSON: /api/v1/satellites/39079 · /tle

For live sub-satellite position, see the globe view (requires WebGL).

§ Visibility from observer

Set your observer location to see the next 7 days of passes ≥ 10°. The values pass through the URL so the page stays shareable.

No JS? Fill the form by hand. The geolocation button needs JavaScript.